DW9936 Weather Reports


time (UTC)temp
C
wind
direction
speed
KPH
gust
KPH
rain 1hr
cm
rain 24hr
cm
rain mn
cm
humidity
%
barometer
mb
20260906224542 14 44 0.0 0.0 0.00 0.00 0.00 61 1026.6
20260906223040 14 46 0.0 0.0 0.00 0.00 0.00 61 1026.6
20260906221543 13 46 0.0 0.0 0.00 0.00 0.00 64 1026.6
20260906220107 13 47 0.0 0.0 0.00 0.00 0.00 65 1026.7
20260906214537 13 49 0.0 0.0 0.00 0.00 0.00 65 1026.8
20260906213033 14 49 0.0 0.0 0.00 0.00 0.00 63 1026.8
20260906211537 15 49 0.0 0.0 0.00 0.00 0.00 61 1026.9
20260906210051 15 49 0.0 0.0 0.00 0.00 0.00 60 1026.8
20260906204531 15 49 0.0 0.0 0.00 0.00 0.00 59 1026.7
20260906203036 15 49 0.0 0.0 0.00 0.00 0.00 58 1026.7
20260906201530 15 49 0.0 0.0 0.00 0.00 0.00 59 1026.4
20260906200039 16 49 0.0 0.0 0.00 0.00 0.00 56 1026.3
20260906194529 16 49 0.0 0.0 0.00 0.00 0.00 55 1026.2
20260906193030 16 49 0.0 0.0 0.00 0.00 0.00 54 1026.2
20260906191528 17 49 0.0 1.6 0.00 0.00 0.00 51 1026.1
20260906190028 17 53 0.0 0.0 0.00 0.00 0.00 51 1026.0
20260906184528 18 53 0.0 0.0 0.00 0.00 0.00 49 1025.8
20260906183035 18 53 0.0 0.0 0.00 0.00 0.00 45 1025.7
20260906181531 19 53 0.0 0.0 0.00 0.00 0.00 44 1025.5
20260906180037 20 53 0.0 0.0 0.00 0.00 0.00 40 1025.3
20260906174535 21 54 0.0 1.6 0.00 0.00 0.00 38 1025.1
20260906173025 21 53 0.0 1.6 0.00 0.00 0.00 37 1024.9
20260906171524 22 101 0.0 1.6 0.00 0.00 0.00 37 1024.7
20260906170023 23 243 0.0 3.2 0.00 0.00 0.00 36 1024.6
20260906164537 23 94 0.0 3.2 0.00 0.00 0.00 35 1024.3
20260906163032 24 71 0.0 4.8 0.00 0.00 0.00 34 1024.3
20260906161521 25 101 0.0 8.0 0.00 0.00 0.00 36 1024.2
20260906160028 25 186 0.0 4.8 0.00 0.00 0.00 36 1024.2
20260906154521 25 98 0.0 4.8 0.00 0.00 0.00 38 1024.2
20260906153020 25 66 0.0 4.8 0.00 0.00 0.00 38 1024.1
20260906151520 25 180 0.0 4.8 0.00 0.00 0.00 37 1024.1
20260906150040 26 185 3.2 6.4 0.00 0.00 0.00 36 1024.1
20260906144531 26 239 0.0 8.0 0.00 0.00 0.00 36 1024.3
20260906143024 26 86 0.0 6.4 0.00 0.00 0.00 36 1024.3
20260906141532 26 245 0.0 8.0 0.00 0.00 0.00 36 1024.3
20260906140021 27 293 0.0 4.8 0.00 0.00 0.00 35 1024.5
20260906134517 27 304 0.0 6.4 0.00 0.00 0.00 34 1024.6
20260906133016 27 312 1.6 9.7 0.00 0.00 0.00 33 1024.6
20260906131524 27 336 0.0 9.7 0.00 0.00 0.00 34 1024.5
20260906130025 27 338 1.6 12.9 0.00 0.00 0.00 34 1024.8
20260906124512 27 177 0.0 6.4 0.00 0.00 0.00 34 1024.9
20260906123012 26 333 0.0 8.0 0.00 0.00 0.00 36 1025.0
20260906121512 26 346 1.6 12.9 0.00 0.00 0.00 36 1025.1
20260906120008 26 345 1.6 6.4 0.00 0.00 0.00 36 1025.2
20260906114506 26 104 0.0 14.5 0.00 0.00 0.00 37 1025.3
20260906113005 26 355 3.2 12.9 0.00 0.00 0.00 38 1025.4
20260906111502 25 9 0.0 6.4 0.00 0.00 0.00 39 1025.5
20260906110001 25 340 3.2 16.1 0.00 0.00 0.00 39 1025.6
20260906104621 25 332 1.6 8.0 0.00 0.00 0.00 40 1025.6
20260906103058 25 20 0.0 8.0 0.00 0.00 0.00 40 1025.7
20260906101558 25 5 3.2 9.7 0.00 0.00 0.00 40 1025.9
20260906100055 25 5 0.0 9.7 0.00 0.00 0.00 41 1026.0
20260906094626 24 277 3.2 14.5 0.00 0.00 0.00 42 1026.2
20260906093101 23 346 1.6 9.7 0.00 0.00 0.00 43 1026.4
20260906091548 23 323 3.2 14.5 0.00 0.00 0.00 44 1026.4
20260906090044 23 300 1.6 6.4 0.00 0.00 0.00 46 1026.5
20260906084541 22 338 1.6 8.0 0.00 0.00 0.00 46 1026.7
20260906083037 22 309 0.0 8.0 0.00 0.00 0.00 48 1026.8
20260906081544 21 340 0.0 8.0 0.00 0.00 0.00 51 1026.9
20260906080028 21 319 1.6 9.7 0.00 0.00 0.00 52 1027.0
20260906074524 21 344 3.2 14.5 0.00 0.00 0.00 51 1026.8
20260906073019 20 321 0.0 12.9 0.00 0.00 0.00 53 1026.8
20260906071515 20 338 0.0 9.7 0.00 0.00 0.00 53 1026.6
20260906070013 20 355 0.0 6.4 0.00 0.00 0.00 55 1026.6
20260906064509 18 355 0.0 8.0 0.00 0.00 0.00 58 1026.4
20260906063007 17 337 1.6 8.0 0.00 0.00 0.00 61 1026.4
20260906061601 16 308 1.6 6.4 0.00 0.00 0.00 64 1026.3
20260906060055 15 318 0.0 6.4 0.00 0.00 0.00 70 1026.2
20260906054551 14 336 0.0 4.8 0.00 0.00 0.00 74 1026.1
20260906053047 13 341 0.0 3.2 0.00 0.00 0.00 77 1025.9
20260906051545 12 330 0.0 0.0 0.00 0.00 0.00 79 1025.8
20260906050047 12 329 0.0 3.2 0.00 0.00 0.00 79 1025.7
20260906044544 12 329 0.0 1.6 0.00 0.00 0.00 80 1025.7
20260906043045 12 329 0.0 0.0 0.00 0.00 0.00 80 1025.6
20260906041541 12 329 0.0 1.6 0.00 0.00 0.00 80 1025.5
20260906040039 12 329 0.0 3.2 0.00 0.00 0.00 81 1025.4
20260906034544 12 329 0.0 3.2 0.00 0.00 0.00 82 1025.3
20260906033035 11 13 0.0 0.0 0.00 0.00 0.00 83 1025.2
20260906031545 12 13 0.0 0.0 0.00 0.00 0.00 82 1025.1
20260906030031 12 13 0.0 0.0 0.00 0.00 0.00 82 1025.0
20260906024530 12 13 0.0 0.0 0.00 0.00 0.00 81 1024.9
20260906023028 12 13 0.0 0.0 0.00 0.00 0.00 81 1024.9
20260906021527 12 13 0.0 0.0 0.00 0.00 0.00 81 1024.9
20260906020031 13 13 0.0 0.0 0.00 0.00 0.00 81 1024.8
20260906014523 13 13 0.0 1.6 0.00 0.00 0.00 81 1024.8
20260906013020 13 13 0.0 1.6 0.00 0.00 0.00 81 1024.6
20260906011519 13 13 0.0 0.0 0.00 0.00 0.00 82 1024.5
20260906010016 13 15 0.0 0.0 0.00 0.00 0.00 82 1024.3
20260906004517 13 15 0.0 0.0 0.00 0.00 0.00 82 1024.2
20260906003022 13 15 0.0 0.0 0.00 0.00 0.00 81 1024.2
20260906001511 14 15 0.0 0.0 0.00 0.00 0.00 82 1024.1
20260906000009 14 15 0.0 0.0 0.00 0.00 0.00 81 1024.0
20260905234509 15 15 0.0 0.0 0.00 0.00 0.00 82 1023.9
20260905233004 15 15 0.0 0.0 0.00 0.00 0.00 81 1023.8
20260905231505 15 15 0.0 1.6 0.00 0.00 0.00 81 1023.7
20260905230059 16 15 0.0 0.0 0.00 0.00 0.00 81 1023.5